Location: C�mpuri de-Sus
(45.9500°N, 22.5500°E)
Time: 10:37:13
(UTC+00:00)

Cosmos 2278 Rocket - Pass Details

Date: 07 June 2022
Orbit: 840 x 846 km, 71.0° (Epoch: 01 July)

Event Time Altitude Azimuth Distance (km) Brightness Sun altitude
Rises 19:00:22 0° 340° (NNW) 3,418 6.6 -6.6°
Reaches altitude 10° 19:03:22 10° 355° (N) 2,478 5.4 -7.0°
Maximum altitude 19:07:49 23° 47° (NE) 1,727 3.8 -7.5°
Drops below altitude 10° 19:12:15 10° 99° (E) 2,465 4.2 -8.1°
Enters shadow 19:13:28 - 106° (ESE) 2,825 4.4 -8.2°
